Flag for Germany Weather past 2 weeks in Salzwedel, Saxony-Anhalt, Germany

Now
59 °F

Partly sunny.


Feels Like: 60 °F
Forecast: 48 / 61 °F
Wind: 3 mph from Southwest

Location: Fassberg

Current Time: Sep 23, 2014 at 7:17:08 PM

Latest Report: Sep 23, 2014 at 6:20 PM


Visibility: N/A

Pressure: 30.07 "Hg

Humidity: 59%

Dew point: 45 °F

Location of SalzwedelLocation

Historic Weather in Salzwedel — Graph

°F

Salzwedel temperature yesterday

Maximum temperature yesterday: 57 °F (at 1:20 PM)
Minimum temperature yesterday: 50 °F (at 11:20 PM)
Average temperature yesterday: 54 °F

Past Weeks' High & Low Weather Summary

 TemperatureHumidityPressure
High73 °F (Sep 16, 3:20 PM)100% (Sep 9, 5:20 AM)30.24 "Hg (Sep 9, 5:20 AM)
Low37 °F (Sep 23, 7:20 AM)46% (Sep 21, 4:20 PM)29.89 "Hg (Sep 19, 4:20 AM)
Average59 °F81%30.04 "Hg
* Reported Sep 8 5:00 PM — Sep 23 5:20 PM, Salzwedel, Weather by CustomWeather, © 2014

Note: Actual official high and low records may vary slightly from our data, if they occured in-between our weather recording intervals... More about our weather records

Advertising

Salzwedel weather history for previous 24 hours

 ConditionsComfort  
Time TempWeatherWind HumidityBarometerVisibility
5:20 PM
Sep 23
61 °FBroken clouds.8 mph52%30.07 "HgN/A
4:20 PM59 °FScattered clouds.7 mph51%30.07 "HgN/A
3:20 PM59 °FPartly sunny.7 mph51%30.09 "HgN/A
2:20 PM61 °FPartly sunny.8 mph48%30.09 "HgN/A
1:20 PM59 °FScattered clouds.7 mph51%30.12 "HgN/A
12:20 PM57 °FScattered clouds.5 mph51%30.12 "HgN/A
11:20 AM55 °FScattered clouds.2 mph55%30.12 "HgN/A
10:20 AM52 °FPassing clouds.7 mph67%30.12 "HgN/A
9:20 AM46 °FPassing clouds.6 mph82%30.12 "HgN/A
8:20 AM41 °FFog.1 mph87%30.12 "HgN/A
7:57 AM37 °FFog.1 mph87%30.12 "Hg5 mi
7:20 AM37 °FFog.2 mph93%30.12 "Hg0 mi
6:20 AM39 °FFog.5 mph93%30.09 "HgN/A
5:20 AM41 °FPassing clouds.3 mph87%30.09 "HgN/A
4:20 AM43 °FPassing clouds.6 mph87%30.09 "HgN/A
3:20 AM43 °FPassing clouds.7 mph93%30.09 "HgN/A
2:20 AM45 °FPassing clouds.7 mph87%30.07 "HgN/A
1:20 AM46 °FPassing clouds.7 mph82%30.07 "HgN/A
12:20 AM50 °FPassing clouds.8 mph76%30.07 "HgN/A
11:20 PM
Sep 22
50 °FPassing clouds.10 mph76%30.07 "HgN/A
10:20 PM52 °FPassing clouds.13 mph72%30.04 "HgN/A
9:20 PM54 °FPassing clouds.14 mph67%30.04 "HgN/A
8:20 PM55 °FPassing clouds.17 mph59%30.01 "HgN/A
7:20 PM55 °FBroken clouds.14 mph59%30.01 "HgN/A
Weather by CustomWeather, © 2014

See weather overviewHow to use our weather pages